Location: Unspecified
(0.0000°N, 0.0000°E)
Time: 13:47:58
(UTC+00:00)

Explorer 11/Cluster Stage 4 - Pass Details

Date: 23 February 2024
Orbit: 465 x 1219 km, 28.8° (Epoch: 24 April)

Event Time Altitude Azimuth Distance (km) Brightness Sun altitude
Rises 19:50:57 0° 219° (SW) 3,550 10.7 -24.0°
Reaches altitude 10° 19:53:45 10° 208° (SSW) 2,726 9.8 -24.7°
Maximum altitude 19:59:37 30° 149° (SSE) 1,832 8.2 -26.1°
Enters shadow 20:00:10 30° 141° (SE) 1,856 8.2 -26.3°
